This demonstration page uses our WeatherBlox Daily Observations layout. Learn more.

Left ArrowRight Arrow

Hourly Observations for May 2, 2022

Temp ( °F °C ) Dew Point ( °F °C ) Humidity (%) Winds ( mph kmh ) Pressure ( in mb ) Visibility ( mi km ) Precip ( " mm )
12:52 am 00:52 Clear 50 10 43 6.1 77 77 Calm 30.02 1017 10 16 0.00 0.00
1:52 am 01:52 Clear 51 10.6 44 6.7 77 77 SE 5 7 30.01 1016 10 16 0.00 0.00
2:52 am 02:52 Clear 50 10 43 6.1 77 77 ESE 5 7 29.99 1016 10 16 0.00 0.00
3:52 am 03:52 Clear 50 10 43 6.1 77 77 E 5 7 29.98 1015 10 16 0.00 0.00
4:52 am 04:52 Clear 54 12.2 42 5.6 64 64 E 7 11 29.96 1015 10 16 0.00 0.00
5:52 am 05:52 Clear 56 13.3 42 5.6 60 60 E 9 15 29.93 1014 10 16 0.00 0.00
6:52 am 06:52 Sunny 57 13.9 42 5.6 58 58 ESE 3 6 29.96 1015 10 16 0.00 0.00
7:52 am 07:52 Mostly Sunny 57 13.9 43 6.1 60 60 ESE 5 7 29.96 1015 10 16 0.00 0.00
8:34 am 08:34 Cloudy with Rain 53 11.7 46 7.8 77 77 S 12 19 30.03 1017 6 10 0.01 0.25
8:52 am 08:52 Cloudy with Rain 52 11.1 47 8.3 83 83 SSE 17 28 30.02 1017 4 6 0.06 1.52
9:52 am 09:52 Cloudy with Rain 52 11.1 49 9.4 89 89 SE 22 35 29.98 1015 5 8 0.16 4.06
10:52 am 10:52 Cloudy with Rain 53 11.7 51 10.6 93 93 SSE 20 31 29.96 1015 5 8 0.07 1.78
11:18 am 11:18 Cloudy with Light Rain 53 11.7 51 10.6 93 93 SE 21 33 29.96 1015 5 8 0.06 1.52
11:48 am 11:48 Cloudy with Light Rain 54 12 52 11 94 94 SE 23 37 29.95 1014 10 16 0.06 1.52
11:52 am 11:52 Cloudy 54 12.2 52 11.1 93 93 SE 22 35 29.95 1014 10 16 0.06 1.52
12:38 pm 12:38 Cloudy with Light Rain 55 12.8 53 11.7 93 93 SSE 17 28 29.94 1014 10 16 0.00 0.00
12:52 pm 12:52 Cloudy with Light Rain 56 13.3 54 12.2 93 93 SSE 18 30 29.93 1014 8 13 0.01 0.25
1:52 pm 13:52 Cloudy with Light Rain 56 13.3 55 12.8 97 97 SSE 21 33 29.90 1012 7 11 0.08 2.03
2:47 pm 14:47 Cloudy with Rain 57 14 55 13 94 94 SSE 22 35 29.87 1012 5 8 0.04 1.02
2:52 pm 14:52 Cloudy with Rain 56 13.3 55 12.8 97 97 SE 22 35 29.87 1011 5 8 0.06 1.52
3:06 pm 15:06 Cloudy with Thunderstorms 56 13.3 55 12.8 97 97 SSE 21 33 29.86 1011 6 10 0.03 0.76
3:21 pm 15:21 Cloudy with Rain 56 13.3 55 12.8 97 97 SE 22 35 29.82 1010 6 10 0.07 1.78
3:38 pm 15:38 Cloudy with Light Rain 57 13.9 56 13.3 96 96 SSE 22 35 29.80 1009 10 16 0.10 2.54
3:52 pm 15:52 Cloudy with Light Rain 57 13.9 56 13.3 96 96 SE 20 31 29.78 1009 10 16 0.10 2.54
4:52 pm 16:52 Cloudy 59 15 57 13.9 93 93 SSE 17 28 29.78 1009 10 16 0.01 0.25
5:41 pm 17:41 Cloudy 60 15.6 58 14.4 93 93 SSE 16 26 29.74 1007 10 16 0.00 0.00
5:52 pm 17:52 Mostly Cloudy 61 16.1 58 14.4 90 90 SSE 17 28 29.74 1007 10 16 0.00 0.00
6:52 pm 18:52 Cloudy 60 15.6 59 15 96 96 SE 16 26 29.73 1007 10 16 0.04 1.02
7:21 pm 19:21 Cloudy with Nearby Thunderstorms 61 16.1 59 15 93 93 SSE 15 24 29.71 1006 10 16 0.00 0.00
7:32 pm 19:32 Cloudy with Thunderstorms 61 16.1 59 15 93 93 SE 18 30 29.71 1006 7 11 0.01 0.25
7:52 pm 19:52 Cloudy with Thunderstorms 61 16.1 59 15 93 93 SSE 17 28 29.70 1006 10 16 0.04 1.02
8:01 pm 20:01 Cloudy with Thunderstorms 61 16.1 59 15 93 93 SSE 20 31 29.71 1006 10 16 0.00 0.00
8:10 pm 20:10 Cloudy with Nearby Thunderstorms 61 16.1 59 15 93 93 SSE 17 28 29.71 1006 10 16 0.00 0.00
8:22 pm 20:22 Cloudy with Thunderstorms 61 16.1 60 15.6 97 97 SSE 18 30 29.71 1006 10 16 0.00 0.00
8:41 pm 20:41 Cloudy with Light Rain 61 16.1 60 15.6 97 97 SSE 17 28 29.70 1006 10 16 0.04 1.02
8:52 pm 20:52 Cloudy 61 16.1 60 15.6 97 97 SSE 20 31 29.72 1006 10 16 0.04 1.02
9:06 pm 21:06 Cloudy with Thunderstorms 62 16.7 60 15.6 93 93 SSE 15 24 29.70 1006 10 16 0.00 0.00
9:21 pm 21:21 Cloudy 62 16.7 60 15.6 93 93 SSE 20 31 29.69 1005 10 16 0.01 0.25
9:52 pm 21:52 Cloudy 62 16.7 61 16.1 96 96 SSE 20 31 29.68 1005 10 16 0.01 0.25
10:29 pm 22:29 Mostly Cloudy with Nearby Thunderstorms 62 16.7 61 16.1 96 96 SSE 26 43 29.61 1003 10 16 0.00 0.00
10:52 pm 22:52 Mostly Cloudy with Light Rain 63 17.2 61 16.1 93 93 S 29 46 29.60 1002 10 16 0.00 0.00
11:52 pm 23:52 Mostly Clear 64 17.8 61 16.1 90 90 S 16 26 29.65 1004 10 16 0.01 0.25

Powered by AerisWeather